Regional Weather Roundup
Issued by NWS

Home | Current Version | Previous Version | Graphics & Text | Print | Product List | Glossary Off
Versions: 1 2 3 4 5 6 7 8 9 10 11 12 13 14 15 16 17 18 19 20 21 22 23 24 25 26 27 28 29 30 31 32 33 34 35 36 37 38 39 40 41 42 43 44 45 46 47 48 49 50

000
ASUS43 KTOP 221608
RWRKS

WEATHER ROUNDUP FOR KANSAS
NATIONAL WEATHER SERVICE GOODLAND KS
1100 AM CDT SUN APR 22 2018

NOTE:  "FAIR" INDICATES FEW OR NO CLOUDS BELOW 12,000 FEET WITH NO
SIGNIFICANT WEATHER AND/OR OBSTRUCTIONS TO VISIBILITY.

KSZ001>006-013>018-027>032-041>047-221700-
NORTHWEST KANSAS

CITY           SKY/WX    TMP DP  RH WIND       PRES   REMARKS
GOODLAND       MOSUNNY   46  34  62 NE3       30.22S
HAYS           MOSUNNY   51  41  68 N14       30.23R
HILL CITY      SUNNY     49  41  74 N9        30.25S
RUSSELL        CLOUDY    51  41  68 N20       30.21S
$$

KSZ061>065-074>080-084>089-221700-
SOUTHWEST KANSAS

CITY           SKY/WX    TMP DP  RH WIND       PRES   REMARKS
DODGE CITY     PTSUNNY   49  40  71 N16       30.21S
ELKHART        MOSUNNY   51  42  72 N12       30.22S
GARDEN CITY    PTSUNNY   47  39  74 N14       30.22F
GREAT BEND     CLOUDY    48  42  80 N20G28    30.21S
LIBERAL        PTSUNNY   48  37  66 N13       30.23S
PRATT          CLOUDY    47  39  74 N23       30.19S
$$

KSZ066>073-081>083-090>101-221700-
SOUTHEAST KANSAS

CITY           SKY/WX    TMP DP  RH WIND       PRES   REMARKS
CHANUTE        LGT RAIN  50  48  93 N13       30.05S FOG
COFFEYVILLE    LGT RAIN  51  49  92 N10       30.02S
HUTCHINSON     CLOUDY    51  41  68 NW18      30.15S
MEDICINE LODGE   N/A     50  42  74 N22G32    30.15S
NEWTON         CLOUDY    47  41  80 N18       30.14R
PARSONS        LGT RAIN  50  49  96 N13       30.04S
WICHITA INTL   CLOUDY    50  42  74 N17       30.12S
WICHITA JABRA  CLOUDY    49  43  80 N17       30.11S
WICHITA MCCONL CLOUDY    49  41  75 N15       30.12R
WINFIELD       CLOUDY    50  46  86 N16       30.10R
$$

KSZ007>012-019>026-033>040-048>060-102>105-221700-
NORTHEAST KANSAS

CITY           SKY/WX    TMP DP  RH WIND       PRES   REMARKS
CONCORDIA      CLOUDY    50  39  66 N13       30.20R
EMPORIA        CLOUDY    48  43  82 N14       30.10S
LAWRENCE       LGT RAIN  48  42  80 NE10      30.13S
MANHATTAN      PTSUNNY   54  38  54 NE14      30.16S
MARYSVILLE     CLOUDY    54  37  54 NE9       30.19S
OLATHE IND     LGT RAIN  48  46  93 NE14G23   30.11F FOG
OLATHE EXE     LGT RAIN  46  45  96 NE16      30.10F FOG
SALINA         CLOUDY    52  42  69 N15       30.18S
TOPEKA BILLARD LGT RAIN  52  41  66 NE14      30.14R
TOPEKA FORBES  CLOUDY    51  42  71 N14       30.13R
$$




USA.gov is the U.S. government's official web portal to all federal, state and local government web resources and services.